This demonstration page uses our WeatherBlox Daily Observations layout. Learn more.

Left ArrowRight Arrow

40.92945, -100.16068

Hourly Observations for May 2, 2015

Temp ( °F °C ) Dew Point ( °F °C ) Humidity (%) Winds ( mph kmh ) Pressure ( in mb ) Visibility ( mi km ) Precip ( " mm )
12:15 am 00:15 Mostly Cloudy 65 18.6 51 10.8 61 61 SE 7 11 29.91 1013 10 16.0934 N/A
12:35 am 00:35 Partly Cloudy 64 18 51 10.8 63 63 ESE 9 15 29.91 1013 10 16.0934 N/A
12:55 am 00:55 Clear 63 17.4 52 10.9 66 66 ESE 8 13 29.91 1013 10 16.0934 N/A
1:15 am 01:15 Mostly Cloudy 62 16.9 52 11.1 69 69 ESE 9 15 29.88 1012 10 16.0934 N/A
1:35 am 01:35 Mostly Cloudy 63 17.3 52 11.1 67 67 SE 8 13 29.88 1012 10 16.0934 N/A
1:55 am 01:55 Mostly Cloudy 63 17.2 52 10.9 67 67 SE 8 13 29.88 1012 10 16.0934 N/A
2:15 am 02:15 Clear 63 17 50 10.1 64 64 SE 8 13 29.88 1012 10 16.0934 N/A
2:35 am 02:35 Partly Cloudy 62 16.6 50 9.8 64 64 SSE 8 13 29.88 1012 10 16.0934 N/A
2:55 am 02:55 Partly Cloudy 58 14.4 49 9.6 73 73 S 9 15 29.91 1013 10 16.0934 N/A
3:15 am 03:15 Partly Cloudy 58 14.2 49 9.3 73 73 SW 6 9 29.88 1012 10 16.0934 N/A
3:35 am 03:35 Clear 57 13.7 49 9.6 76 76 WSW 8 13 29.88 1012 10 16.0934 N/A
3:55 am 03:55 Clear 55 13 49 9.5 79 79 WNW 8 13 29.88 1012 10 16.0934 N/A
4:15 am 04:15 Clear 54 12.4 50 10 85 85 WNW 6 9 29.91 1013 10 16.0934 N/A
4:35 am 04:35 Clear 53 11.6 49 9.2 85 85 SW 6 9 29.91 1013 10 16.0934 N/A
4:55 am 04:55 Clear 52 10.9 48 9.1 89 89 WSW 3 6 29.91 1013 10 16.0934 N/A
5:15 am 05:15 Clear 52 10.9 48 9 88 88 W 6 9 29.91 1013 10 16.0934 N/A
5:35 am 05:35 Clear 51 10.3 47 8.3 88 88 W 3 6 29.91 1013 10 16.0934 N/A
5:55 am 05:55 Clear 52 10.9 49 9.2 89 89 N N/A 29.91 1013 10 16.0934 N/A
6:15 am 06:15 Clear 49 9.2 46 7.8 91 91 N N/A 29.94 1014 10 16.0934 N/A
6:35 am 06:35 Clear 49 9.6 47 8.1 90 90 N N/A 29.91 1013 10 16.0934 N/A
6:55 am 06:55 Sunny 49 9.2 46 7.8 91 91 SSE 3 6 29.94 1014 10 16.0934 N/A
7:15 am 07:15 Sunny 49 9.7 47 8.4 92 92 N N/A 29.91 1013 10 16.0934 N/A
7:35 am 07:35 Sunny 51 10.6 49 9.3 92 92 ESE 3 6 29.91 1013 7 11.26538 N/A
7:55 am 07:55 Sunny 54 12.1 51 10.7 91 91 N N/A 29.91 1013 7 11.26538 N/A
8:15 am 08:15 Sunny 57 13.9 53 11.8 87 87 N N/A 29.88 1012 10 16.0934 N/A
8:35 am 08:35 Sunny 60 15.8 53 11.9 78 78 N N/A 29.85 1011 10 16.0934 N/A
8:55 am 08:55 Sunny 63 17.3 53 11.8 70 70 SW 5 7 29.85 1011 10 16.0934 N/A
9:15 am 09:15 Sunny 66 18.7 54 12.2 66 66 SSW 8 13 29.83 1010 10 16.0934 N/A
9:35 am 09:35 Sunny 67 19.7 54 12.2 62 62 SSW 7 11 29.83 1010 10 16.0934 N/A
9:55 am 09:55 Sunny 69 20.8 53 11.9 57 57 S 5 7 29.83 1010 10 16.0934 N/A
10:15 am 10:15 Sunny 71 21.5 52 10.9 51 51 S 5 7 29.83 1010 10 16.0934 N/A
10:35 am 10:35 Sunny 72 22.3 53 11.4 50 50 N N/A 29.8 1009 10 16.0934 N/A
10:55 am 10:55 Sunny 74 23.1 52 11 47 47 SSW 7 11 29.77 1008 10 16.0934 N/A
11:15 am 11:15 Sunny 75 23.7 53 11.6 47 47 S 8 13 29.77 1008 10 16.0934 N/A
11:35 am 11:35 Sunny 76 24.3 54 12.2 47 47 S 7 11 29.77 1008 10 16.0934 N/A
11:55 am 11:55 Sunny 76 24.5 52 11.1 43 43 S 9 15 29.77 1008 10 16.0934 N/A
12:15 pm 12:15 Sunny 77 25 52 11.2 42 42 S 8 13 29.74 1007 10 16.0934 N/A
12:35 pm 12:35 Sunny 78 25.5 52 11.3 41 41 SSE 12 19 29.71 1006 10 16.0934 N/A
12:55 pm 12:55 Sunny 79 26 53 11.9 41 41 S 8 13 29.71 1006 10 16.0934 N/A
1:15 pm 13:15 Sunny 79 26.3 52 11 38 38 S 12 19 29.68 1005 10 16.0934 N/A
1:35 pm 13:35 Sunny 80 26.8 52 11.2 38 38 SSW 8 13 29.68 1005 10 16.0934 N/A
1:55 pm 13:55 Sunny 82 27.6 52 11.1 36 36 SW 8 13 29.68 1005 10 16.0934 N/A
2:15 pm 14:15 Sunny 82 27.9 49 9.5 32 32 SSW 9 15 29.65 1004 10 16.0934 N/A
2:35 pm 14:35 Sunny 83 28.1 50 10.1 32 32 SSW 9 15 29.65 1004 10 16.0934 N/A
2:55 pm 14:55 Sunny 83 28.6 48 9 29 29 SSW 12 19 29.62 1003 10 16.0934 N/A
3:15 pm 15:15 Sunny 84 29 49 9.3 29 29 SSW 9 15 29.59 1002 10 16.0934 N/A
3:35 pm 15:35 Sunny 85 29.5 49 9.4 29 29 SSW 16 26 29.59 1002 10 16.0934 N/A
3:55 pm 15:55 Sunny 84 29.1 47 8.5 27 27 SSW 10 17 29.59 1002 10 16.0934 N/A
4:15 pm 16:15 Sunny 85 29.5 48 8.9 28 28 SSW 14 22 29.59 1002 10 16.0934 N/A
4:35 pm 16:35 Sunny 85 29.4 47 8.2 26 26 SW 10 17 29.56 1001 10 16.0934 N/A
4:55 pm 16:55 Sunny 86 30 48 9.1 27 27 SSW 10 17 29.56 1001 10 16.0934 N/A
5:15 pm 17:15 Partly Cloudy 85 29.6 47 8.4 27 27 SSW 18 30 29.56 1001 10 16.0934 N/A
5:35 pm 17:35 Partly Cloudy 84 28.7 46 8 27 27 SSW 15 24 29.56 1001 10 16.0934 N/A
5:55 pm 17:55 Sunny 82 27.6 47 8.6 30 30 SSW 14 22 29.56 1001 10 16.0934 N/A
6:15 pm 18:15 Partly Cloudy 83 28.6 49 9.3 30 30 S 15 24 29.56 1001 10 16.0934 N/A
6:35 pm 18:35 Partly Cloudy 81 27.3 47 8.4 30 30 S 15 24 29.59 1002 10 16.0934 N/A
6:55 pm 18:55 Sunny 81 27 46 7.6 29 29 SW 10 17 29.59 1002 10 16.0934 N/A
7:15 pm 19:15 Mostly Cloudy 76 24.6 52 11.2 43 43 SW 9 15 29.59 1002 10 16.0934 N/A
7:35 pm 19:35 Partly Cloudy 74 23.4 49 9.2 41 41 SW 8 13 29.62 1003 10 16.0934 N/A
7:55 pm 19:55 Sunny 74 23.4 49 9.3 41 41 SSW 8 13 29.59 1002 10 16.0934 N/A
8:15 pm 20:15 Sunny 73 22.9 50 9.8 44 44 WSW 9 15 29.62 1003 10 16.0934 N/A
8:35 pm 20:35 Partly Cloudy 74 23.6 46 7.7 36 36 SSW 9 15 29.62 1003 10 16.0934 N/A
8:55 pm 20:55 Clear 71 21.7 46 7.8 41 41 SSW 9 15 29.59 1002 10 16.0934 N/A
9:15 pm 21:15 Clear 70 21.3 46 8 43 43 SSW 10 17 29.62 1003 10 16.0934 N/A
9:35 pm 21:35 Clear 72 22.4 45 7.3 38 38 SSW 9 15 29.62 1003 10 16.0934 N/A
9:55 pm 21:55 Clear 71 21.5 46 7.9 42 42 SSW 9 15 29.62 1003 10 16.0934 N/A
10:15 pm 22:15 Clear 69 20.8 47 8.4 45 45 SSW 9 15 29.62 1003 10 16.0934 N/A
10:35 pm 22:35 Clear 68 20.1 48 9 49 49 SSW 7 11 29.65 1004 10 16.0934 N/A
10:55 pm 22:55 Clear 68 20.1 49 9.2 50 50 SSW 7 11 29.65 1004 10 16.0934 N/A
11:15 pm 23:15 Clear 70 20.9 48 9.1 47 47 SW 9 15 29.62 1003 10 16.0934 N/A
11:35 pm 23:35 Clear 67 19.5 49 9.2 52 52 SW 8 13 29.65 1004 10 16.0934 N/A
11:55 pm 23:55 Clear 66 18.7 48 9.1 54 54 SW 8 13 29.65 1004 10 16.0934 N/A

Powered by AerisWeather